Location: ??? ?????
(30.6482°N, 60.5850°E)
Time: 05:09:19
(UTC+00:00)

BREEZE-M DEB (TANK) - Pass Details

Date: 09 April 2020
Orbit: 317 x 11715 km, 49.7° (Epoch: 05 June)

Event Time Altitude Azimuth Distance (km) Brightness Sun altitude
Rises 15:37:29 0° 229° (SW) 6,991 9.3 -16.5°
Reaches altitude 10° 15:43:53 10° 231° (SW) 4,418 8.3 -17.8°
Maximum altitude 15:52:49 71° 315° (NW) 789 4.2 -19.6°
Enters shadow 15:55:15 19° 37° (NE) 1,307 5.1 -20.1°
